RH
5 5 6 6 7 6 6 5 5 6 7 9 11 11 11 10 11 13 15 18 22 25 27 27 27 28 29 31 34 38 41 44 46 47 46 47 48 49 51 52 52 52 52 52 52 52 52 52 52 51 50 49 49 48 47 46 45 44 42 41 40 39 39 38 37 36 36 35 35 34 34 34 34 33
5 5 5 6 6 6 6 6 6 6 6 7 8 10 11 11 11 11 11 12 14 17 20 23 25 26 27 27 27 28 29 31 34 36 37 39 42 44 46 48 49 50 50 50 51 51 51 51 51 50 49 49 48 47 47 46 45 44 43 41 40 39 39 38 37 36 35 35 34 34 34 34 33 32
4 5 5 5 5 6 6 6 6 6 6 6 6 7 9 10 11 11 10 11 12 12 14 16 18 20 22 24 25 25 25 25 25 26 27 29 32 34 37 40 43 45 46 47 48 48 48 49 48 48 48 47 47 47 46 46 45 44 43 41 40 39 38 37 37 36 35 34 33 33 32 32 32 32
4 4 4 5 5 5 6 6 6 6 6 6 6 6 6 7 9 9 10 10 11 12 12 13 14 15 16 17 19 20 22 23 23 23 23 23 24 25 27 29 32 35 38 41 42 44 45 45 45 45 45 45 45 45 45 44 43 42 42 41 40 39 38 37 36 35 35 34 33 32 31 31 30 30
3 3 4 4 5 5 5 5 5 6 6 6 6 6 6 6 6 7 8 9 10 12 12 12 13 13 13 13 13 15 16 17 18 19 20 21 21 22 22 23 24 25 27 30 32 35 37 38 40 40 40 41 41 42 41 41 41 41 40 40 40 39 39 38 37 36 35 34 33 32 31 30 29 29
3 3 3 4 4 5 5 5 5 5 6 6 5 6 6 6 6 6 6 7 8 10 11 12 12 12 12 12 12 12 12 13 13 13 14 15 16 17 18 19 20 21 22 22 23 25 27 28 30 31 32 33 34 35 35 36 36 37 37 37 38 38 37 37 36 36 35 34 33 32 31 31 30 29
3 3 3 4 4 4 4 5 5 5 5 6 6 6 6 6 6 6 6 6 6 8 10 11 11 11 12 12 12 12 11 11 11 11 11 11 11 12 13 14 15 17 18 19 19 20 21 22 23 23 24 24 25 26 26 27 28 29 30 31 32 32 32 33 32 32 32 32 31 31 30 30 29 29
3 3 3 3 3 4 4 4 5 5 5 6 6 6 6 6 6 6 6 6 6 7 8 9 10 11 11 11 11 12 11 11 11 10 10 10 10 10 10 11 11 12 13 14 14 15 16 17 18 19 19 19 20 20 20 20 21 21 21 22 22 23 24 25 25 25 25 25 25 25 25 25 25 25
2 3 3 3 3 3 3 4 4 5 5 5 6 6 6 6 6 6 6 6 6 6 7 7 8 9 10 10 10 11 11 11 11 11 10 10 10 11 11 11 11 11 11 11 11 12 12 13 14 14 15 16 16 17 17 17 17 17 17 17 17 18 18 18 18 18 18 18 18 18 18 18 18 18
2 2 2 3 3 3 3 3 4 4 4 5 5 5 6 6 6 6 6 6 6 6 6 6 7 7 8 9 9 10 10 10 10 10 10 10 10 11 11 11 11 11 11 11 11 11 11 11 11 11 11 12 12 12 13 13 13 14 14 14 15 15 15 15 15 15 14 14 14 14 14 14 13 13
2 2 2 2 2 2 3 3 3 4 4 4 4 5 5 5 5 5 5 5 5 6 6 6 6 6 7 7 8 8 8 8 8 9 9 10 10 11 11 11 11 11 11 11 11 11 11 11 11 11 10 10 10 10 10 10 10 10 10 10 11 11 11 12 11 12 12 11 12 11 11 11 11 11
2 2 2 2 2 2 2 2 3 3 3 4 4 4 4 4 5 5 5 5 5 5 6 6 6 6 7 7 7 7 7 7 7 8 8 9 10 10 11 11 11 11 11 11 11 11 11 11 11 10 10 10 10 9 9 9 9 9 9 9 9 8 8 8 8 8 8 8 8 8 9 8 8 8
2 2 2 2 2 2 2 2 2 2 2 3 3 3 4 4 4 4 4 5 5 5 5 6 6 7 7 7 7 7 7 7 8 8 8 8 9 9 10 10 10 10 10 10 10 10 10 11 11 11 11 10 10 10 9 10 9 10 10 9 9 8 8 8 8 7 7 7 7 7 7 7 6 6
2 2 2 2 2 2 2 2 2 2 2 2 2 3 3 3 4 4 4 4 4 4 5 5 6 6 7 7 8 8 8 8 8 8 8 8 8 9 9 10 10 10 10 9 10 9 10 10 10 10 11 11 11 11 10 10 10 10 10 10 9 9 8 8 8 8 8 7 7 7 7 7 6 6
2 2 2 2 2 2 2 2 2 2 2 2 2 2 2 2 3 3 3 4 4 4 4 5 5 6 6 7 8 8 8 8 8 8 8 9 9 9 9 10 10 10 10 9 9 9 9 9 9 9 10 10 10 10 10 10 10 10 9 10 10 9 9 9 8 8 8 8 8 8 7 7 7 7
2 2 2 2 2 2 2 2 2 2 2 2 2 2 2 2 2 2 3 3 3 4 4 4 4 5 5 6 7 7 8 8 8 8 8 8 9 9 10 11 11 11 11 10 9 8 8 7 8 8 8 8 8 9 9 9 9 9 9 9 10 10 10 10 10 9 8 8 8 8 8 8 7 7
2 2 2 2 2 2 2 2 2 2 2 2 2 2 2 2 2 2 2 2 3 3 3 3 4 4 5 5 6 6 6 7 7 7 7 7 8 8 9 10 11 11 11 10 9 8 8 7 6 7 6 7 7 7 8 8 8 8 9 9 9 9 10 10 9 9 9 8 8 8 8 7 7 8
2 2 2 2 2 2 2 2 2 2 2 2 2 2 2 2 2 2 2 2 2 2 2 3 3 3 4 4 4 5 5 5 5 6 6 7 7 8 8 8 9 9 9 9 8 8 7 6 6 6 6 6 6 6 6 7 7 7 7 8 8 8 9 9 9 9 8 8 8 7 7 7 7 7
3 3 2 2 3 2 2 2 2 2 2 2 2 2 2 2 2 2 3 2 2 2 2 2 3 3 3 3 3 3 3 3 4 4 4 5 5 6 6 6 7 8 9 9 9 8 8 8 7 7 6 6 6 5 6 5 5 6 6 7 7 8 8 8 8 8 7 7 8 7 7 7 7 7
3 3 3 3 3 3 3 3 2 2 2 2 2 2 2 2 3 2 3 3 3 3 2 2 3 3 3 3 3 3 3 3 3 3 3 3 3 4 4 5 6 7 8 8 9 9 9 8 8 7 6 5 5 5 5 5 4 5 5 5 6 6 6 7 6 6 7 7 7 7 7 7 7 7
3 3 3 3 3 3 3 3 3 3 3 2 3 3 2 3 3 2 3 3 2 3 3 2 3 2 3 3 2 3 3 3 3 3 3 3 3 3 3 3 4 4 5 5 6 6 6 6 6 5 5 4 4 4 4 4 4 4 4 4 5 5 5 5 5 5 6 6 6 6 6 6 6 6
3 3 3 3 3 3 3 3 3 3 3 3 3 3 3 3 3 3 3 3 2 3 3 2 2 2 2 2 3 3 3 3 2 3 3 3 3 3 3 3 3 3 3 3 4 4 4 4 4 4 4 3 3 4 4 3 4 4 4 4 4 4 4 4 4 5 5 5 5 5 5 5 5 5
3 3 3 3 3 3 3 3 3 3 4 4 4 4 3 3 3 3 2 3 3 2 2 2 2 2 2 2 3 3 3 3 3 2 3 3 2 3 3 2 3 3 3 3 3 3 3 3 3 3 3 3 3 3 3 3 3 3 3 4 4 4 4 4 4 4 4 4 4 4 4 4 4 4
3 3 3 3 3 3 3 3 3 3 4 4 4 4 4 4 3 3 2 2 2 2 2 3 3 3 3 3 3 3 3 3 3 3 3 3 3 3 3 2 3 3 3 3 3 3 3 3 3 3 3 3 3 3 3 3 3 3 3 3 3 3 3 3 4 4 4 4 4 4 4 4 3 4
3 3 3 3 3 3 3 3 3 3 4 4 4 4 4 3 3 3 3 3 3 3 3 3 3 3 3 3 3 3 3 3 3 3 2 2 3 2 2 3 2 2 3 3 3 3 3 3 3 3 3 3 3 3 3 2 2 2 2 2 2 2 2 3 3 3 3 3 3 3 3 3 3 3
3 3 3 3 3 3 3 3 3 3 3 3 3 3 3 3 3 3 3 3 3 3 3 3 4 4 4 4 4 4 4 4 3 3 3 3 3 3 3 3 3 3 3 3 3 3 3 3 3 3 3 3 3 3 3 3 2 2 2 2 2 2 2 2 2 3 2 2 3 3 3 3 3 3
3 2 2 2 2 2 2 2 3 3 3 3 3 3 3 3 3 3 3 3 3 3 3 3 3 4 3 4 4 4 4 5 4 4 4 4 4 4 4 3 3 4 3 3 3 3 3 3 3 3 3 3 3 3 3 3 3 2 2 2 2 2 2 2 2 2 2 2 2 3 3 3 3 3
3 3 3 2 3 3 2 2 2 2 3 3 3 3 3 3 3 3 3 3 3 3 3 3 3 3 3 3 4 4 4 5 5 5 5 4 4 4 4 4 4 5 5 4 4 4 4 3 3 3 3 3 3 3 3 3 3 3 2 2 2 2 2 2 2 2 2 2 2 2 3 3 2 3
3 3 3 3 3 3 2 3 3 2 3 3 3 3 3 3 3 3 3 3 3 3 3 3 3 3 3 3 3 3 4 4 4 5 5 5 5 4 4 4 4 4 5 5 5 5 5 4 4 4 4 4 3 3 3 3 3 3 3 2 2 2 2 2 2 2 2 2 2 2 2 3 2 2
3 3 3 3 3 3 3 3 3 3 3 3 3 3 3 3 3 3 3 3 3 3 3 3 3 3 3 3 3 3 3 3 3 4 4 4 4 4 4 4 4 4 5 5 5 5 5 4 5 5 4 4 4 4 3 3 3 3 3 3 2 2 2 2 2 2 2 2 2 2 2 3 2 2
3 3 3 3 3 3 3 3 3 3 3 3 3 3 3 3 3 3 3 3 3 3 3 3 3 4 4 4 4 3 3 3 3 3 4 4 4 4 4 4 4 4 4 5 4 4 4 4 4 5 5 5 5 4 4 4 4 3 3 3 3 3 3 2 2 2 2 2 2 2 2 2 2 2
4 3 3 3 3 3 3 3 3 3 3 3 3 3 3 3 3 3 3 3 3 3 3 3 3 4 4 4 4 4 4 4 4 3 3 4 4 4 4 4 4 4 4 4 4 4 4 4 4 4 4 4 4 4 4 4 4 3 3 3 3 3 3 3 3 3 3 3 2 3 2 2 2 2
4 3 3 3 3 3 3 3 3 3 3 3 3 3 3 3 3 3 3 3 3 3 3 3 3 4 4 4 4 4 4 4 4 4 4 4 4 4 4 4 4 4 4 3 4 4 3 4 4 4 4 4 4 4 4 4 4 4 4 4 4 4 4 4 4 3 3 3 3 3 3 3 3 3
4 4 3 3 3 3 3 3 3 3 3 3 3 3 3 3 3 3 3 3 4 3 3 4 4 4 4 4 4 4 4 4 4 4 4 4 4 4 4 4 4 4 4 4 4 4 4 4 4 4 4 4 4 4 4 4 4 4 4 4 4 4 4 4 4 5 4 4 4 4 4 3 3 3
4 4 4 4 4 4 3 3 3 3 3 3 3 3 3 3 3 3 4 4 4 4 4 4 4 4 4 4 4 4 4 4 4 4 4 4 4 4 4 4 4 4 4 4 4 4 4 4 4 4 4 4 4 4 4 4 4 4 4 4 4 4 4 4 4 4 4 5 4 4 4 4 4 3
4 4 4 4 4 4 4 4 4 4 3 4 4 3 4 4 3 4 4 4 4 4 4 4 4 4 4 4 4 4 4 4 5 4 4 4 4 4 4 4 4 4 4 5 4 4 5 4 4 5 5 4 4 4 4 4 4 4 4 4 4 4 4 4 4 4 4 4 4 4 4 4 3 3
5 5 5 5 4 4 4 4 4 4 4 4 4 4 4 4 4 4 4 4 4 4 4 4 4 4 4 4 4 4 5 5 5 5 5 5 4 5 5 4 5 5 4 5 5 5 5 5 5 5 4 4 4 4 4 4 4 4 4 4 4 4 4 4 4 4 4 4 4 4 4 4 4 3
6 6 6 6 5 5 5 5 5 5 5 5 4 5 5 4 5 4 4 4 4 4 4 4 4 4 4 4 4 4 4 5 5 4 5 5 4 5 5 4 5 5 4 5 5 4 4 5 4 4 4 4 4 4 4 4 4 4 4 4 3 4 4 3 4 4 3 3 3 3 3 4 4 3
9 8 8 8 8 7 7 7 7 6 6 6 5 5 5 5 5 5 4 5 5 4 5 5 4 5 5 4 4 5 4 4 5 4 4 5 4 4 5 4 4 4 4 4 4 4 4 4 4 4 4 4 4 4 4 4 4 3 3 4 3 3 3 3 3 3 3 3 3 3 3 3 3 3
11 11 10 10 10 10 9 9 9 8 8 8 7 7 7 7 6 6 6 5 5 5 5 5 4 5 5 4 4 5 4 4 4 4 4 4 4 4 4 4 4 4 4 4 4 4 4 4 4 4 4 4 4 4 3 3 4 3 3 3 3 3 3 3 3 3 3 3 3 3 3 3 3 3
10 10 10 10 10 10 10 10 10 10 10 9 9 9 9 9 9 8 8 8 7 7 7 7 6 6 6 6 5 5 5 5 5 5 5 4 4 4 4 4 4 4 4 4 4 4 4 4 4 4 4 4 4 3 3 3 3 3 3 3 3 3 3 3 3 3 3 3 2 2 3 2 2 3
9 9 9 8 8 9 8 8 8 8 8 8 8 8 9 9 9 9 9 9 9 9 8 8 8 8 8 8 8 8 7 7 7 7 7 6 6 6 6 5 5 5 5 5 5 5 4 4 4 4 4 4 4 4 4 4 3 3 3 3 4 4 4 3 3 3 3 3 3 3 3 3 3 3
9 9 9 9 9 10 10 10 10 10 10 11 10 10 10 10 10 10 10 10 10 10 10 9 9 10 9 9 9 9 9 9 9 9 9 8 8 8 8 8 8 7 7 7 7 7 7 6 6 6 6 6 6 6 5 5 5 4 4 4 4 5 5 5 5 4 3 3 3 3 3 3 3 4
11 12 13 14 15 15 15 15 15 15 15 15 15 15 14 14 14 13 13 13 12 12 12 12 12 12 11 11 11 11 10 10 10 10 10 10 9 9 9 9 9 9 9 9 9 9 9 8 7 7 7 6 7 7 6 6 5 5 4 4 4 4 4 5 6 5 5 4 3 2 3 3 3 3
18 19 20 21 21 20 20 20 20 20 20 19 19 18 18 17 17 16 16 15 15 14 14 13 13 13 12 12 12 12 11 11 11 11 11 10 10 10 10 10 10 10 10 10 10 10 10 9 9 8 7 7 7 6 6 6 6 5 4 4 3 3 3 3 4 5 5 4 4 3 3 3 3 3
Wind_Speed
124 126 128 130 132 132 132 133 133 135 136 139 142 145 147 148 149 150 151 151 151 152 153 153 153 153 152 152 152 152 152 151 151 149 147 145 143 142 141 140 139 139 138 137 137 136 136 136 136 136 136 135 135 134 134 134 134 134 133 132 131 130 129 128 127 126 125 125 124 123 122 121 121 120
122 124 125 127 128 130 130 130 131 132 134 136 138 142 144 146 147 148 149 149 149 150 151 152 153 153 154 154 154 154 154 154 153 152 150 148 147 145 143 142 141 141 140 139 139 138 138 138 139 139 138 138 137 137 137 137 137 136 135 134 133 132 131 130 130 129 128 127 126 125 124 124 124 123
118 121 123 124 125 126 128 128 129 130 131 133 135 138 141 144 145 146 146 147 147 148 150 150 151 152 154 154 155 155 155 155 155 154 153 151 150 148 147 145 144 143 143 142 141 141 141 141 141 141 141 140 139 139 139 139 139 138 138 137 135 134 133 133 132 131 130 129 129 128 127 126 126 125
114 117 119 122 123 124 125 126 127 128 129 130 132 134 136 139 141 142 143 144 144 146 148 149 150 151 152 153 153 154 154 154 155 155 154 153 152 151 150 148 147 146 146 145 145 144 144 144 144 144 143 143 142 142 141 141 140 140 139 138 137 136 135 134 133 133 132 131 131 130 129 128 127 127
109 112 114 117 119 121 122 123 124 125 127 128 129 130 132 134 135 137 138 139 140 143 146 148 149 150 151 151 152 152 152 153 154 154 154 154 153 152 152 151 150 149 149 148 148 147 147 147 147 147 146 145 145 144 143 143 142 141 140 140 139 138 137 136 136 135 134 133 132 131 130 129 129 128
103 105 108 112 115 118 119 119 120 121 123 125 126 127 128 130 131 132 133 134 135 139 143 145 146 147 148 149 150 150 151 151 152 152 152 152 152 151 151 151 151 150 150 150 149 149 149 149 149 150 149 148 147 147 146 145 144 143 142 141 141 140 139 139 138 137 136 135 134 133 132 131 130 129
96 99 102 106 110 113 115 117 117 118 120 122 123 124 125 126 128 129 130 130 131 134 138 141 142 144 145 146 147 148 149 150 150 150 150 150 149 149 149 149 149 149 149 149 149 149 149 150 150 151 151 150 150 149 149 147 146 145 145 144 143 143 142 141 140 139 138 137 136 135 134 133 131 130
92 94 97 101 105 108 110 112 114 116 117 119 120 121 122 123 124 126 127 128 128 130 134 137 139 140 141 142 144 145 147 147 147 148 148 147 147 147 146 146 146 146 146 147 147 147 148 148 149 150 151 151 151 151 150 150 149 148 147 146 146 145 145 144 143 142 140 139 138 137 136 135 134 132
88 90 92 96 99 102 105 108 111 113 115 116 117 118 119 120 120 122 124 125 125 127 130 132 135 137 138 139 140 141 142 143 144 144 144 144 145 145 145 145 145 145 145 145 145 145 145 146 147 148 149 149 150 150 151 151 150 150 149 148 148 147 146 146 145 144 143 141 140 139 138 137 136 135
85 87 89 91 94 96 99 103 106 109 112 113 114 115 116 117 118 118 119 121 122 123 125 127 129 132 135 136 137 137 138 139 139 140 140 140 140 141 142 143 144 144 144 144 144 144 144 144 144 145 146 147 147 148 149 149 149 149 148 148 148 147 147 146 145 144 144 143 142 141 140 139 138 136
82 84 85 87 89 92 94 98 101 104 107 109 111 112 113 115 116 116 116 117 118 118 120 122 124 127 130 132 133 134 135 135 134 134 134 135 135 136 138 140 141 143 143 144 143 143 143 143 143 144 144 145 145 145 146 146 146 146 146 146 145 145 145 145 145 144 143 142 141 141 140 139 138 137
77 80 82 84 86 88 90 93 95 98 101 104 107 109 110 112 112 113 114 114 114 114 115 117 119 122 125 127 128 129 131 131 131 130 131 132 133 135 137 138 139 140 141 141 142 142 142 142 142 142 143 143 143 143 143 143 143 143 143 143 143 142 142 142 142 141 141 140 140 139 139 138 138 137
72 75 77 80 82 84 86 88 90 92 95 98 101 104 106 108 109 110 111 112 112 112 112 112 114 116 119 122 124 125 126 128 129 130 131 132 132 134 135 136 137 137 137 138 138 138 138 138 139 140 141 141 141 141 141 141 141 141 141 141 141 140 140 139 139 138 137 137 137 137 136 136 136 135
67 69 71 74 77 79 82 84 85 87 89 91 94 98 101 104 106 107 108 109 110 110 110 110 110 112 114 117 120 122 123 125 127 129 129 130 131 132 133 134 135 136 136 136 136 136 136 136 136 137 138 139 140 140 139 139 138 139 139 140 140 139 138 138 137 136 135 135 135 134 134 134 133 133
64 65 67 69 71 73 76 78 81 83 84 85 88 90 94 97 99 102 104 105 106 107 108 109 109 109 111 114 117 120 121 122 124 125 126 127 129 130 131 132 133 134 135 135 135 134 134 134 134 134 134 135 136 137 137 136 136 136 136 137 137 137 137 136 135 135 134 134 133 132 132 131 131 130
62 63 64 66 67 69 71 73 75 77 79 81 82 84 86 89 91 94 97 100 102 104 105 106 107 108 109 112 114 117 119 121 122 122 122 124 125 126 127 129 131 133 134 135 135 134 132 132 131 131 131 131 132 133 134 134 134 135 134 134 134 135 135 135 135 134 133 132 132 131 131 130 129 129
61 61 62 63 64 66 67 69 70 72 74 76 77 79 81 82 83 86 89 92 96 99 101 102 103 105 107 110 112 114 116 118 119 119 119 120 121 122 124 126 128 130 132 133 133 132 131 130 129 128 128 129 130 130 131 132 132 133 132 132 132 132 133 134 134 134 133 132 131 130 129 128 128 127
58 59 60 61 62 63 65 66 67 68 70 71 73 74 75 77 78 80 82 85 88 91 93 95 97 100 103 105 108 111 112 113 114 115 116 118 120 121 121 122 124 126 128 129 130 130 129 129 128 127 127 127 128 128 130 130 130 130 130 130 130 130 131 132 133 133 133 131 130 129 128 128 127 127
53 54 55 57 59 60 62 63 65 65 66 67 68 69 71 73 74 76 78 80 82 84 85 88 90 94 96 99 102 104 106 107 108 110 112 114 116 118 119 120 121 123 125 127 128 129 129 129 130 129 128 127 127 127 128 128 127 127 127 127 128 129 131 132 132 132 131 129 129 129 128 128 127 127
49 51 52 53 54 56 57 59 61 62 63 63 64 65 67 69 71 72 75 77 78 79 80 82 84 87 89 91 94 97 99 100 102 104 106 108 109 111 114 116 118 121 123 126 128 129 130 131 131 130 128 127 126 126 125 125 123 123 123 123 125 127 129 130 130 129 129 128 128 128 128 128 127 127
47 48 48 49 51 52 54 55 57 58 59 60 61 63 65 66 67 69 71 73 74 75 76 78 79 81 83 85 87 89 91 93 95 96 98 100 103 105 108 110 113 116 120 122 124 126 127 128 129 128 126 124 123 122 122 121 120 119 119 120 121 123 124 125 126 126 126 126 126 126 126 127 127 128
44 45 45 46 47 49 51 52 53 54 55 57 59 61 62 63 65 67 68 69 70 71 72 74 76 78 79 81 82 84 86 88 89 90 92 94 97 99 101 104 107 110 113 116 118 120 121 122 123 123 122 121 120 119 119 119 118 117 117 118 119 120 121 121 122 122 123 124 124 125 125 126 127 127
41 41 41 42 43 45 48 49 50 50 52 54 57 59 60 62 64 66 66 66 67 68 69 70 72 73 75 77 78 80 82 84 85 86 88 90 92 93 95 97 100 102 105 108 111 113 114 116 117 117 117 117 116 115 116 115 115 115 115 115 116 116 117 117 118 118 120 121 123 124 124 125 125 125
38 38 38 39 40 42 45 46 47 47 49 52 55 57 59 62 64 64 63 63 64 64 65 66 68 69 71 72 74 76 79 81 82 84 85 86 87 89 90 91 93 95 98 101 104 106 106 107 109 110 112 113 114 113 113 112 112 111 111 111 111 112 113 113 114 115 117 119 121 122 122 122 122 122
35 35 35 36 38 40 41 42 42 44 46 49 51 54 58 60 59 57 57 58 58 59 60 62 64 67 69 70 71 73 75 76 78 80 81 82 83 84 85 85 87 89 91 93 95 96 97 98 100 103 105 108 109 110 110 110 109 108 107 107 107 108 108 109 110 111 113 115 117 118 118 118 118 118
31 32 33 34 35 36 36 37 38 40 42 45 48 50 53 53 51 51 53 54 54 55 56 59 62 64 66 67 68 70 72 73 76 77 77 78 79 80 80 81 83 84 85 87 89 90 91 92 94 97 99 101 103 105 106 106 106 105 104 103 103 103 104 105 106 108 109 110 111 111 112 112 113 114
28 29 30 31 32 33 33 33 34 36 39 41 43 45 46 47 47 49 51 52 52 53 55 56 58 60 61 62 64 67 70 72 74 75 75 75 75 76 76 77 79 80 81 83 85 87 88 89 91 93 94 95 97 98 100 102 102 102 101 99 98 98 99 100 101 103 104 104 105 105 106 107 109 110
26 27 28 29 29 30 31 31 32 34 36 38 39 40 42 43 44 45 46 47 49 50 52 53 55 56 57 59 61 64 66 69 71 72 73 73 73 74 74 75 76 78 79 81 83 84 85 85 87 88 89 90 91 92 95 97 98 98 97 96 95 95 94 94 95 97 99 99 100 101 102 104 105 106
23 24 25 26 27 28 29 30 31 32 33 35 36 37 39 40 41 41 42 43 45 47 48 50 51 52 54 55 57 59 61 63 66 68 70 71 72 73 74 74 75 76 77 78 79 80 81 82 83 84 85 86 87 88 91 92 94 94 94 94 94 93 92 91 92 93 95 95 96 96 98 100 101 102
20 21 22 23 24 25 26 27 28 30 31 32 34 35 36 37 38 38 39 40 41 43 44 46 47 49 50 52 53 55 57 59 61 64 66 68 69 71 72 72 72 73 74 75 77 78 78 79 80 81 82 83 84 85 87 89 91 92 92 92 92 91 91 90 90 91 91 91 91 92 94 95 97 98
18 18 19 20 21 22 23 24 25 27 28 30 31 32 34 35 35 36 36 37 38 39 40 42 43 45 47 48 50 52 54 55 57 60 62 64 65 67 69 70 71 72 73 74 75 76 77 77 78 79 80 81 82 83 85 87 89 90 89 88 88 89 88 88 88 88 89 89 89 89 91 92 93 94
16 17 18 18 19 20 21 22 23 24 25 27 28 30 31 32 33 33 34 34 35 36 37 39 40 42 44 46 47 49 51 53 55 57 59 60 62 64 66 67 69 70 71 72 73 74 75 75 76 77 79 80 80 81 83 85 87 86 85 84 85 86 86 85 85 86 87 87 87 88 88 89 89 90
15 16 16 17 18 19 20 20 21 22 23 24 25 26 27 28 29 30 31 32 33 34 35 36 38 39 41 43 45 47 48 50 52 54 56 57 59 61 62 64 65 66 67 68 69 70 71 71 73 74 75 77 78 79 81 82 83 82 82 82 82 83 83 82 83 84 84 85 85 86 86 86 87 87
13 14 14 15 16 17 18 19 19 20 21 22 23 24 25 26 27 27 28 29 30 32 33 34 35 37 39 40 42 44 45 47 49 51 52 54 55 57 59 60 61 62 63 64 65 65 66 67 68 69 70 72 74 75 77 79 79 79 79 79 79 81 81 80 80 82 83 83 84 84 85 86 87 87
11 11 12 13 14 15 15 16 17 18 19 19 20 22 23 24 25 26 27 28 29 30 31 32 33 35 36 38 39 40 42 44 45 47 48 50 52 53 54 56 57 58 59 60 61 62 63 64 64 65 66 68 69 71 73 74 75 76 76 76 77 78 78 78 79 80 81 82 82 83 84 85 86 87
7 8 9 10 11 12 13 13 14 15 16 17 18 19 20 21 22 24 25 26 27 28 29 30 31 33 34 35 36 38 39 40 42 43 45 46 47 49 50 52 53 54 56 57 58 59 60 61 61 62 63 64 66 67 69 70 71 72 73 73 73 74 75 75 76 77 78 79 79 80 81 83 85 86
5 5 6 7 8 9 10 10 11 12 13 13 14 15 16 18 19 20 22 23 24 25 27 28 29 30 32 33 34 35 36 38 39 41 42 43 45 46 47 49 50 51 52 54 55 56 57 58 58 59 60 61 63 64 65 67 68 69 69 70 71 71 72 73 74 75 76 76 76 77 78 80 83 85
4 4 4 5 5 6 7 7 8 9 9 10 11 12 14 15 16 18 19 20 21 23 24 25 27 28 29 31 32 33 34 35 37 38 39 41 42 43 45 46 47 49 50 51 52 53 54 55 56 57 58 59 60 61 62 64 66 66 66 67 68 69 69 70 71 72 73 73 74 74 75 76 79 82
3 3 3 4 4 4 5 5 6 7 8 9 10 11 12 13 14 15 17 18 19 20 21 23 24 26 27 28 30 31 32 34 35 36 37 39 40 41 43 44 45 46 48 49 50 51 52 53 54 55 56 57 58 59 61 62 63 64 64 65 65 66 67 68 69 70 70 70 70 71 72 74 76 78
4 4 4 5 5 5 6 6 7 7 8 9 9 10 11 12 13 13 14 16 17 18 19 21 22 23 24 26 27 28 30 31 32 34 35 36 38 39 40 42 43 44 46 47 48 49 50 52 53 53 54 55 56 58 59 60 61 62 62 62 63 64 65 65 66 67 68 68 68 69 71 72 72 73
5 6 6 6 7 7 8 8 8 8 9 9 10 10 11 11 12 13 14 15 16 17 18 19 20 21 22 23 24 26 27 28 30 31 32 34 35 36 37 39 40 41 43 44 45 46 47 49 50 50 51 52 53 55 56 58 59 59 59 59 60 62 62 62 63 64 65 67 67 67 68 69 69 69
6 6 6 7 7 7 8 8 9 9 9 10 10 11 11 12 13 14 14 15 16 17 18 19 19 20 21 22 23 24 25 26 28 29 30 31 33 34 35 36 37 39 40 41 42 43 44 45 46 47 48 49 50 51 54 55 56 56 56 56 56 58 60 61 61 61 63 65 65 65 66 65 64 65
6 6 6 7 7 7 8 8 8 9 9 10 10 11 12 13 14 14 15 16 17 18 18 19 20 21 22 23 24 25 26 27 28 29 30 31 32 33 34 36 37 38 39 39 41 42 44 45 46 47 48 49 49 51 53 55 55 56 57 56 56 56 58 60 60 61 62 64 64 64 64 63 63 64
6 6 7 7 7 8 8 9 9 9 9 10 10 11 12 12 13 14 15 16 16 17 18 19 20 21 22 23 24 25 26 27 28 29 30 31 32 34 35 36 37 39 39 40 41 43 45 46 48 48 49 50 50 52 54 55 56 57 59 58 58 57 57 58 59 61 63 65 65 63 62 62 63 64
7 7 7 7 8 8 9 9 9 10 10 10 11 12 12 12 13 14 14 15 16 17 18 19 20 21 21 22 23 24 25 26 27 28 30 31 32 33 35 36 37 39 40 40 42 44 45 47 49 49 50 51 52 52 54 56 57 59 60 60 60 59 57 56 58 60 63 65 66 65 63 64 64 64
Wind_Direction
240 240 240 241 241 241 241 241 240 239 238 237 237 237 238 238 238 239 240 240 241 242 242 243 243 244 243 243 243 244 244 245 245 246 246 246 245 245 245 245 245 245 245 245 246 246 246 246 247 247 247 247 247 248 248 249 249 249 250 250 250 250 250 250 250 250 250 250 250 250 250 251 251 251
240 240 240 241 241 241 241 241 241 241 240 239 238 237 238 238 238 238 239 239 240 241 242 242 243 244 244 244 244 244 244 245 245 246 246 246 246 246 246 246 246 246 246 246 246 247 247 247 247 247 248 248 248 248 248 249 249 250 250 250 250 250 251 251 251 251 251 251 251 251 251 251 251 251
238 239 240 240 241 241 241 241 241 241 241 240 239 238 238 238 238 238 238 238 239 240 241 241 242 243 244 244 244 245 245 245 246 246 246 247 247 247 247 247 246 247 247 247 247 247 248 248 248 248 248 248 249 249 249 249 249 250 250 250 251 251 251 251 251 252 252 252 252 252 251 251 251 252
238 238 239 240 240 241 241 241 241 241 241 241 240 240 239 239 239 239 238 238 238 239 240 240 241 242 243 244 244 245 245 246 246 246 247 247 247 247 247 247 247 247 247 247 247 248 248 248 249 249 249 249 249 249 249 250 250 250 251 251 251 251 252 252 252 252 252 252 252 252 252 252 252 252
238 238 238 239 240 241 241 241 241 241 242 242 242 241 241 241 240 240 240 239 239 239 240 240 241 241 242 243 244 244 245 246 246 246 247 247 247 247 247 247 247 247 247 247 248 248 248 249 249 249 250 250 250 250 250 250 251 251 251 252 252 252 252 253 253 253 253 253 253 253 253 253 253 253
239 239 238 239 239 240 241 241 242 242 242 242 242 242 242 242 241 241 241 240 240 240 240 240 241 241 242 242 243 244 244 245 246 246 247 247 247 247 247 248 248 248 248 248 248 248 248 249 249 250 250 251 251 251 251 251 251 252 252 252 253 253 253 253 253 253 253 254 254 254 254 254 254 254
239 239 238 238 239 239 240 241 241 242 242 242 243 243 243 242 242 242 242 241 241 240 241 241 242 242 242 242 243 243 244 244 245 246 246 247 247 248 248 248 248 248 248 248 248 248 248 249 249 250 250 251 251 252 252 252 252 252 252 253 253 253 253 254 254 254 254 254 254 254 254 254 254 254
239 239 238 238 238 238 239 240 240 241 241 242 242 243 243 243 242 242 242 242 241 241 241 242 242 242 243 243 243 243 244 245 245 245 246 247 247 248 248 248 248 248 248 248 248 248 249 249 249 249 250 250 251 252 252 252 253 253 253 253 253 253 253 254 254 254 254 255 255 255 255 255 255 255
239 239 238 238 238 238 238 238 239 240 240 241 241 242 243 243 243 243 242 242 242 241 241 241 242 243 243 243 244 244 244 245 245 246 246 246 247 247 248 248 248 248 248 248 248 248 248 249 249 249 250 250 250 251 251 252 252 252 253 253 253 253 253 254 254 254 254 255 255 255 255 255 255 255
239 239 239 239 238 238 238 238 238 239 240 240 241 241 242 243 243 243 243 242 242 242 241 242 242 243 243 244 244 245 245 245 246 246 246 247 247 247 248 248 249 249 249 249 249 249 249 249 249 249 249 249 250 250 251 251 252 252 252 253 253 253 254 254 254 254 255 255 255 255 255 256 256 256
239 239 239 239 239 239 238 238 238 238 239 239 240 241 241 242 243 243 243 243 243 242 242 242 242 243 243 244 245 245 246 246 246 247 247 248 248 248 248 249 249 249 249 249 249 249 249 249 249 249 249 250 250 250 251 251 252 252 252 253 253 253 253 254 254 254 254 255 255 255 255 256 256 256
239 239 240 240 240 240 240 239 238 238 238 239 239 240 241 241 242 243 243 244 243 243 242 242 242 243 244 244 245 245 246 247 247 248 248 248 248 248 248 248 249 249 249 249 249 249 249 249 249 249 250 250 250 250 250 251 251 252 252 253 253 253 253 253 254 254 254 254 255 255 255 255 256 256
240 240 240 240 240 241 241 241 240 240 239 239 239 240 240 241 242 242 243 243 244 244 243 243 242 243 243 244 245 245 246 247 247 247 247 247 247 248 248 249 249 249 249 250 250 250 249 249 249 250 250 250 251 251 251 251 251 252 252 253 253 253 253 253 254 254 254 254 254 255 255 255 255 255
241 241 240 240 241 241 241 242 242 242 241 240 240 240 240 241 241 242 242 243 244 244 244 243 243 242 243 244 245 245 246 246 246 246 247 247 247 247 248 248 249 250 250 250 250 250 250 250 249 249 250 250 250 251 251 251 251 251 252 252 253 253 253 253 254 254 254 254 254 254 254 254 255 255
242 242 242 241 241 241 242 242 242 243 243 242 242 241 241 241 241 242 242 243 244 244 244 244 243 243 242 243 244 244 245 246 246 246 246 246 247 247 247 248 248 249 250 250 250 250 250 249 249 249 249 249 250 250 251 251 251 251 251 252 252 253 253 254 254 254 254 254 254 254 254 254 254 254
242 242 242 241 242 242 242 242 242 243 243 244 243 243 243 242 242 242 242 243 243 244 244 244 243 243 243 243 243 243 244 245 245 246 246 246 246 246 247 247 248 248 249 250 250 250 250 249 249 249 249 249 249 250 250 250 251 251 251 251 252 252 253 254 254 254 254 254 254 254 254 254 254 254
242 242 242 242 242 242 242 242 242 242 242 243 243 244 244 244 243 243 242 242 243 243 243 244 244 243 243 243 243 243 243 244 244 245 246 246 246 246 246 246 247 247 248 249 250 250 250 250 250 249 249 249 249 249 249 250 250 250 250 251 251 252 252 253 253 254 254 254 254 254 254 254 254 254
243 243 243 244 244 244 244 244 244 243 243 243 243 243 244 244 244 244 243 243 243 243 243 243 243 243 243 243 243 244 244 244 244 245 245 246 246 247 247 246 247 247 248 249 250 251 251 251 251 251 250 250 250 250 249 249 249 249 250 250 251 251 251 252 252 253 253 254 254 254 255 254 254 254
245 244 244 244 244 244 245 245 245 245 244 244 244 243 243 243 244 243 243 243 243 243 242 242 242 243 243 243 243 244 244 245 244 245 245 245 245 246 246 247 247 248 248 249 250 250 251 252 252 252 252 251 251 251 251 250 250 250 250 250 250 251 251 251 252 252 253 253 253 254 254 255 255 255
245 245 244 244 244 244 244 244 245 245 245 245 244 244 244 243 243 242 242 242 242 242 242 242 242 242 242 243 243 243 244 244 244 244 244 245 245 245 245 246 246 246 247 247 248 248 249 250 251 252 252 252 252 252 252 252 251 251 251 250 250 250 251 251 251 252 252 252 252 253 253 254 254 254
245 244 244 244 244 244 244 243 243 244 244 245 244 244 244 243 242 242 241 241 241 241 242 242 242 242 242 242 243 243 243 243 243 243 244 244 244 244 244 244 244 245 245 246 247 247 248 249 250 251 252 252 252 252 253 253 253 252 252 251 251 251 251 251 251 251 252 252 252 252 252 253 253 253
248 247 245 245 245 245 245 244 243 242 243 244 244 244 244 243 243 242 241 241 240 240 240 240 241 241 241 242 242 243 243 243 243 243 243 243 243 243 243 243 244 244 245 246 247 247 248 249 250 251 252 253 253 253 253 253 253 253 252 252 252 251 251 251 251 251 251 252 252 252 252 252 252 252
250 249 247 246 245 244 245 245 244 242 241 241 242 243 243 243 243 242 241 240 240 240 240 240 240 240 240 240 241 242 243 243 243 243 243 242 243 243 243 243 243 244 245 245 246 247 248 249 250 251 252 253 253 253 253 253 253 252 252 251 251 251 251 251 251 251 251 252 252 252 252 252 252 253
252 251 248 246 244 243 243 243 243 242 241 241 241 241 242 242 242 242 242 241 241 241 241 241 241 241 241 241 241 241 241 242 242 243 243 243 243 243 243 243 243 244 244 245 246 247 248 248 249 250 251 252 253 254 254 253 253 252 251 251 251 250 250 250 250 250 250 251 251 252 252 252 252 253
251 250 249 246 245 243 242 242 241 241 241 241 241 241 242 243 244 245 246 245 245 244 243 242 242 242 242 242 242 242 243 243 244 244 244 244 244 244 245 245 245 245 245 246 247 247 248 248 248 249 249 250 251 252 253 253 253 252 252 251 251 250 250 250 250 250 250 251 251 252 252 253 253 253
251 249 248 247 246 245 243 241 240 239 239 239 240 241 244 247 248 247 247 246 246 244 243 242 241 241 241 241 242 243 244 245 245 246 246 245 245 245 246 246 246 246 247 247 248 248 247 247 248 248 248 248 249 250 252 252 253 253 252 252 251 251 251 250 250 251 251 251 252 252 253 253 253 253
251 250 248 248 248 247 245 242 239 237 237 238 240 241 243 245 245 244 243 244 243 242 241 241 241 241 240 240 240 240 241 242 244 245 246 246 246 246 246 246 246 246 246 247 247 247 247 247 247 247 248 248 249 249 251 252 253 254 254 254 253 253 252 251 251 252 252 252 252 252 253 253 253 253
251 250 249 248 248 247 246 244 241 239 238 238 239 240 241 242 243 243 243 243 243 243 242 242 241 241 240 239 238 238 238 239 241 243 244 245 245 245 245 244 244 244 244 245 245 246 247 247 248 248 248 248 249 249 250 251 252 253 254 254 254 254 253 252 252 252 252 252 252 252 252 252 252 253
251 250 249 248 248 247 246 244 243 241 240 239 239 239 240 241 241 242 242 241 241 242 242 242 242 242 241 240 239 239 238 238 239 240 241 242 242 243 243 243 243 243 243 244 244 245 246 247 247 248 248 248 248 248 249 250 251 252 252 253 253 254 254 253 252 252 252 252 251 252 252 252 253 253
253 251 250 249 248 247 245 244 242 242 241 240 239 239 239 240 240 240 240 239 239 239 239 240 240 240 240 240 239 239 238 238 238 238 239 240 241 242 243 243 243 243 243 244 244 244 244 245 246 246 247 247 247 248 248 249 250 250 251 252 252 253 254 254 254 254 253 253 253 252 252 252 252 253
255 253 251 250 248 247 245 243 242 241 240 240 239 239 239 239 239 239 238 238 237 237 237 237 237 237 237 237 238 238 237 237 237 237 237 238 239 240 241 242 242 242 242 243 243 244 244 244 245 245 246 246 247 247 248 248 249 250 251 251 252 253 253 254 254 254 254 254 254 253 253 252 252 252
254 252 251 249 247 246 245 243 241 240 239 239 239 239 239 239 238 238 237 237 237 236 236 235 235 235 235 235 235 236 236 236 236 236 236 237 237 239 240 241 242 242 242 243 243 244 244 245 245 245 245 246 246 247 248 248 250 251 251 251 252 252 253 253 254 254 254 254 254 254 254 254 254 254
251 248 247 246 245 243 242 242 241 240 239 238 238 237 237 238 238 237 237 236 236 236 236 235 235 235 235 235 235 235 235 235 236 236 236 237 237 238 240 241 242 243 244 244 245 245 245 246 246 246 246 247 247 247 248 249 250 251 251 251 251 252 252 252 253 253 254 254 255 255 255 255 255 254
252 247 245 244 243 242 241 240 239 239 238 238 237 236 235 235 235 235 236 235 235 235 235 235 235 235 235 235 235 235 235 235 236 236 237 237 238 238 240 241 242 243 244 245 245 246 246 246 246 246 246 246 246 247 248 248 249 250 250 250 250 251 251 251 251 252 252 253 253 253 254 254 254 254
253 249 245 243 242 241 240 240 238 237 237 236 236 235 234 233 233 233 233 233 233 233 233 234 234 235 235 235 235 236 235 236 236 236 237 238 238 239 239 240 241 242 243 244 244 245 245 245 245 245 245 245 246 246 247 248 248 249 249 249 249 249 250 250 249 249 250 250 251 252 252 253 253 253
246 246 244 242 240 238 237 237 237 236 236 236 235 235 235 234 234 233 233 232 232 232 232 233 233 234 234 235 235 235 235 235 236 236 237 238 238 239 240 240 241 242 242 243 244 245 245 245 246 246 246 246 246 247 247 248 248 249 249 249 249 249 249 249 249 249 249 250 250 251 251 253 253 253
241 240 241 242 240 238 236 235 234 234 234 235 236 236 237 237 237 236 235 235 235 234 235 235 235 235 236 236 236 237 237 237 237 237 238 238 239 239 240 241 241 242 242 243 244 244 245 245 246 246 246 247 247 248 248 249 249 249 249 249 249 249 249 249 249 249 249 249 250 250 250 252 253 254
251 247 247 247 247 244 240 239 238 236 235 236 237 237 237 238 238 237 237 236 236 236 237 237 237 237 237 238 238 239 239 240 240 240 241 241 241 242 242 242 243 243 244 244 245 245 246 246 247 247 247 248 248 248 249 249 250 250 250 250 250 250 250 250 250 250 250 250 250 250 250 250 252 254
270 266 264 262 261 257 252 248 245 241 238 237 237 237 237 237 237 237 237 237 237 238 238 238 238 239 239 239 239 240 240 241 241 242 242 243 243 243 244 244 244 245 245 246 246 247 247 248 248 248 248 248 249 249 249 250 250 251 250 250 250 251 250 250 251 251 251 250 251 251 251 250 251 253
260 257 257 254 252 249 247 244 243 242 241 241 240 240 240 242 241 242 241 241 240 240 241 241 241 241 241 241 242 242 242 243 243 244 244 244 245 245 245 245 246 246 246 247 247 247 248 248 248 248 248 249 249 249 249 249 250 250 250 250 250 250 250 250 251 251 251 251 250 250 250 250 251 252
255 252 252 252 250 249 248 247 248 247 247 247 247 247 247 248 249 249 249 248 248 248 247 247 247 246 246 246 246 246 246 247 247 247 247 248 248 248 248 248 249 249 249 249 249 249 250 250 250 250 250 250 250 251 251 251 250 250 250 251 251 252 251 250 250 250 251 251 250 249 249 249 250 251
265 264 263 261 260 259 259 258 258 258 257 258 258 258 258 258 258 257 257 256 256 255 255 254 254 254 254 254 253 253 253 253 253 253 253 253 253 253 253 253 253 253 253 253 253 253 253 253 253 253 253 253 253 253 253 253 253 252 251 250 251 252 253 253 251 250 250 250 250 249 249 250 249 250
284 284 284 282 280 279 277 274 273 271 269 269 269 267 266 266 265 264 263 262 262 261 260 259 259 258 258 258 257 257 257 257 256 256 256 256 256 256 256 257 257 257 256 257 257 257 257 257 256 255 255 255 255 255 255 255 254 254 253 250 248 248 250 253 254 253 252 251 250 249 249 249 249 250
296 296 296 294 293 292 289 287 287 284 282 281 279 276 274 272 270 269 268 266 266 265 264 263 262 262 261 261 260 260 259 259 258 258 258 258 258 258 258 258 258 258 257 257 257 258 259 259 258 257 257 256 255 255 256 256 256 256 255 253 250 248 247 248 250 253 255 255 254 253 251 250 249 249
302 301 299 298 298 297 295 295 294 292 290 288 285 283 282 279 277 275 273 271 270 268 267 267 266 265 264 264 263 262 262 261 260 260 260 259 259 258 258 258 257 257 256 256 255 255 255 256 257 257 257 256 255 255 255 256 257 256 256 256 254 252 249 247 247 248 251 253 255 256 256 256 254 253